[[{"header":{"parameterUnit":"m.s-1","parameterCategory":1,"la1":30.2991,"la2":30.254,"lo1":-89.0895,"lo2":-89.0444,"dy":0.0017,"dx":0.0017,"nx":28,"ny":28,"refTime":"2023-10-27T21:00:00:Z","depth":0,"parameterNumber":2,"parameterNumberName":"U-component_of_WINDS"},"data":[0,0,0,0,0,0,0,0,0,0,0,0,0,0,0,0,0,0,0,0,0,0,0,0,0,0,0,0,0,0,0,0,0,0,0,0,0,0,0,0,0,0,0,0,0,0,0,0,0,0,0,0,0,0,0,0,0,0,-3.2356,-3.2357,0,-3.2422,-3.2423,-3.2424,-3.2385,-3.2383,-3.2381,-3.2379,-3.2448,-3.2451,-3.2455,0,0,0,0,0,0,0,0,0,0,0,0,0,-3.2199,-3.2202,-3.2356,-3.2357,-3.2357,-3.2422,-3.2423,-3.2424,-3.2385,-3.2383,-3.2381,-3.2379,-3.2447,-3.2451,-3.2455,0,0,0,0,0,0,0,0,0,0,0,0,0,-3.2267,-3.2203,-3.2356,-3.2346,-3.2346,-3.2422,-3.2423,-3.2424,-3.2386,-3.2383,-3.238,-3.2378,-3.2445,-3.2451,-3.2456,-3.2545,0,0,-3.2472,-3.2475,0,0,0,0,0,0,0,0,-3.2263,-3.2272,-3.2347,-3.2347,-3.2347,-3.2392,-3.2393,-3.2465,-3.2386,-3.2371,-3.2379,-3.2376,-3.2432,-3.2438,-3.2457,-3.2548,-3.2551,-3.2473,-3.2476,-3.2478,-3.248,0,0,0,0,0,0,0,-3.2258,-3.2269,-3.2382,-3.2348,-3.2348,-3.234,-3.2346,-3.2406,-3.2416,-3.2372,-3.2369,-3.2378,-3.2431,-3.2452,-3.2458,-3.2552,-3.2473,-3.2477,-3.2481,-3.2483,-3.2724,-3.2727,0,0,0,0,0,0,-3.2254,-3.2266,-3.238,-3.2384,-3.2297,-3.2345,-3.2352,-3.2381,-3.2415,-3.2418,-3.238,-3.2375,-3.2444,-3.2452,-3.246,-3.2568,-3.2478,-3.2483,-3.2486,-3.2721,-3.2725,-3.2728,0,0,0,0,0,0,-3.2251,-3.2265,-3.2377,-3.2324,-3.2338,-3.235,-3.2383,-3.2383,-3.2403,-3.2421,-3.2423,-3.2398,-3.2442,-3.2453,-3.2525,-3.257,-3.2486,-3.2491,-3.2717,-3.2722,-3.2726,-3.2784,0,0,0,0,0,0,-3.2246,-3.2264,-3.2296,-3.2325,-3.2341,-3.244,-3.2386,-3.2387,-3.2413,-3.2408,-3.2439,-3.2442,-3.2441,-3.2517,-3.253,-3.2576,-3.2495,-3.2713,-3.2719,-3.2725,-3.2778,-3.279,-3.28,0,0,0,0,0,-3.2241,-3.231,-3.2298,-3.2312,-3.2382,-3.2442,-3.2451,-3.2448,-3.2417,-3.245,-3.2463,-3.2441,-3.2564,-3.2525,-3.2539,-3.2587,-3.271,-3.2717,-3.2724,-3.2773,-3.2788,-3.28,0,0,0,0,0,0,-3.2285,-3.2313,-3.2301,-3.238,-3.241,-3.2436,-3.2478,-3.2463,-3.2502,-3.2495,-3.249,-3.2498,-3.2573,-3.2588,-3.2544,-3.2677,-3.2632,-3.2642,-3.2664,-3.2678,-3.2689,-3.2683,-3.2499,0,0,0,0,0,-3.2304,-3.235,-3.2372,-3.2441,-3.2456,-3.2465,-3.2491,-3.2486,-3.2516,-3.2528,-3.2545,-3.2575,-3.2621,-3.2651,-3.2693,-3.2781,-3.2788,-3.2822,-3.2833,-3.2842,-3.285,-3.29,-3.2915,-3.2752,-3.2752,-3.2751,0,0,-3.2343,-3.2365,-3.2393,-3.245,-3.2472,-3.2521,-3.2475,-3.2528,-3.2564,-3.2536,-3.2605,-3.262,-3.2653,-3.2734,-3.2771,-3.2748,-3.2898,-3.2851,-3.2858,-3.2862,-3.2909,-3.2924,-3.2938,-3.2756,-3.2756,-3.2755,0,0,-3.244,-3.246,-3.252,-3.2544,-3.2578,-3.2584,-3.2599,-3.2629,-3.2637,-3.2707,-3.2688,-3.2732,-3.281,-3.2835,-3.2858,-3.297,-3.2952,-3.2984,-3.3042,-3.309,-3.3103,-3.3114,-3.3154,-3.3169,-3.2993,-3.2993,-3.2993,0,-3.2484,-3.2555,-3.2553,-3.2608,-3.2634,-3.2613,-3.2674,-3.2698,-3.2744,-3.2763,-3.2738,-3.2838,-3.2859,-3.2946,-3.2974,-3.2994,-3.3011,-3.2979,-3.3101,-3.3113,-3.3123,-3.3161,-3.3176,-3.2997,-3.2997,-3.2996,-3.2996,0,-3.2609,-3.266,-3.2704,-3.275,-3.2782,-3.284,-3.2848,-3.2881,-3.2875,-3.2884,-3.2957,-3.2983,-3.3031,-3.3052,-3.3046,-3.314,-3.3125,-3.3101,-3.3055,-3.3142,-3.3178,-3.3193,-3.3002,-3.3001,-3.3,-3.2999,0,0,-3.273,-3.2777,-3.2794,-3.2816,-3.2854,-3.2893,-3.2953,-3.3,-3.3029,-3.3064,-3.3113,-3.3182,-3.3161,-3.3187,-3.3185,-3.3228,-3.3316,-3.3199,-3.32,-3.3219,-3.3421,-3.3438,-3.3455,-3.3306,-3.3308,-3.3311,-3.3419,0,-3.2829,-3.293,-3.2931,-3.3025,-3.3073,-3.3056,-3.3107,-3.3137,-3.3149,-3.3192,-3.3206,-3.3255,-3.3223,-3.3239,-3.3281,-3.3296,-3.3356,-3.3289,-3.3352,-3.3354,-3.3342,-3.3474,-3.3491,-3.3591,-3.3432,-3.3435,-3.3437,0,-3.2955,-3.2995,-3.3093,-3.3128,-3.3148,-3.3194,-3.324,-3.3281,-3.3316,-3.3322,-3.3354,-3.3347,-3.3409,-3.3364,-3.345,-3.3404,-3.3431,-3.3443,-3.3447,-3.345,-3.3399,-3.348,-3.3623,-3.3638,-3.3459,-3.3457,-3.3455,0,-3.3033,-3.3112,-3.3181,-3.3201,-3.3243,-3.3276,-3.3295,-3.3327,-3.3357,-3.3398,-3.3418,-3.3466,-3.3491,-3.3529,-3.3536,-3.3502,-3.3623,-3.3578,-3.363,-3.363,-3.3653,-3.3651,-3.3801,-3.3673,-3.3673,-3.3673,-3.3673,0,-3.3142,-3.3203,-3.3217,-3.326,-3.3329,-3.3332,-3.34,-3.3417,-3.3447,-3.3494,-3.3483,-3.3527,-3.3534,-3.3581,-3.3587,-3.3658,-3.367,-3.3677,-3.3677,-3.3677,-3.3676,-3.3692,-3.3685,-3.3677,-3.3676,-3.3675,-3.3675,0,-3.3239,-3.3251,-3.3326,-3.3361,-3.3371,-3.3421,-3.3451,-3.3493,-3.3506,-3.3565,-3.3579,-3.3599,-3.3654,-3.3665,-3.373,-3.3734,-3.3818,-3.3813,-3.3806,-3.3805,-3.3856,-3.3851,-3.402,-3.4043,-3.3902,-3.3903,-3.3904,0,-3.3306,-3.3353,-3.3394,-3.3424,-3.3446,-3.3495,-3.3526,-3.3533,-3.3566,-3.3612,-3.3648,-3.3702,-3.3745,-3.3834,-3.3855,-3.3905,-3.39,-3.3956,-3.3907,-3.3906,-3.39,-3.3897,-3.3902,-3.3965,-3.3966,-3.3967,-3.3968,0,-3.3424,-3.3429,-3.3474,-3.3522,-3.356,-3.3598,-3.3635,-3.3661,-3.3673,-3.3711,-3.3767,-3.3801,-3.3869,-3.3922,-3.3974,-3.3995,-3.3984,-3.3984,-3.3999,-3.3998,-3.3992,-3.3996,-3.383,-3.398,-3.3978,-3.3978,-3.3977,-3.3977,-3.3508,-3.3549,-3.3585,-3.3637,-3.3666,-3.3701,-3.3743,-3.3762,-3.3809,-3.3864,-3.3866,-3.3927,-3.3965,-3.4033,-3.4058,-3.4107,-3.409,-3.4111,-3.4116,-3.4121,-3.4125,-3.3986,-3.4117,-3.4117,-3.4116,-3.4116,-3.4116,0,-3.3625,-3.3648,-3.3696,-3.3748,-3.3789,-3.3777,-3.3818,-3.3854,-3.3908,-3.3944,-3.3988,-3.4054,-3.4108,-3.4135,-3.4188,-3.4223,-3.422,-3.4237,-3.4233,-3.4239,-3.4138,-3.412,-3.4239,-3.4239,-3.4239,-3.4239,-3.4239,-3.4239,-3.369,-3.376,-3.377,-3.3856,-3.3879,-3.3939,-3.3964,-3.3998,-3.4027,-3.4101,-3.4146,-3.4164,-3.4197,-3.4253,-3.4303,-3.431,-3.433,-3.4349,-3.4353,-3.4258,-3.4245,-3.4233,-3.4216,-3.4354,-3.4354,-3.445,-3.4451,-3.4451]},{"header":{"parameterUnit":"m.s-1","parameterCategory":1,"la1":30.2991,"la2":30.254,"lo1":-89.0895,"lo2":-89.0444,"dy":0.0017,"dx":0.0017,"nx":28,"ny":28,"refTime":"2023-10-27T21:00:00:Z","depth":0,"parameterNumber":3,"parameterNumberName":"V-component_of_WINDS"},"data":[0,0,0,0,0,0,0,0,0,0,0,0,0,0,0,0,0,0,0,0,0,0,0,0,0,0,0,0,0,0,0,0,0,0,0,0,0,0,0,0,0,0,0,0,0,0,0,0,0,0,0,0,0,0,0,0,0,0,2.0917,2.0917,0,2.0909,2.0909,2.0909,2.0875,2.0874,2.0873,2.0873,2.0862,2.0862,2.0863,0,0,0,0,0,0,0,0,0,0,0,0,0,2.0905,2.0905,2.0917,2.0917,2.0917,2.0909,2.0909,2.0909,2.0875,2.0874,2.0873,2.0872,2.0862,2.0862,2.0863,0,0,0,0,0,0,0,0,0,0,0,0,0,2.0905,2.0905,2.0917,2.09,2.0898,2.0909,2.0909,2.0909,2.0875,2.0874,2.0873,2.0872,2.0862,2.0862,2.0863,2.089,0,0,2.0865,2.0865,0,0,0,0,0,0,0,0,2.0905,2.0905,2.0902,2.0901,2.0899,2.0892,2.09,2.0902,2.0876,2.0884,2.0873,2.0871,2.0873,2.0872,2.0873,2.089,2.0889,2.0865,2.0865,2.0866,2.0866,0,0,0,0,0,0,0,2.0905,2.0905,2.0914,2.0902,2.09,2.0892,2.0891,2.0901,2.0885,2.0883,2.0881,2.088,2.0872,2.0873,2.0873,2.0889,2.0865,2.0866,2.0866,2.0866,2.0931,2.0932,0,0,0,0,0,0,2.0907,2.0906,2.0914,2.0914,2.0899,2.0893,2.0892,2.0895,2.0885,2.0882,2.0881,2.0879,2.0872,2.0872,2.0872,2.0905,2.0866,2.0866,2.0867,2.0929,2.0931,2.0933,0,0,0,0,0,0,2.0907,2.0909,2.0915,2.0909,2.0909,2.0895,2.0899,2.0896,2.0897,2.0883,2.088,2.0885,2.0871,2.0871,2.0887,2.0904,2.0867,2.0867,2.0928,2.093,2.0932,2.0971,0,0,0,0,0,0,2.0907,2.0909,2.0918,2.091,2.091,2.0929,2.09,2.0896,2.0898,2.0895,2.0886,2.0884,2.087,2.0886,2.0888,2.0905,2.0868,2.0926,2.0929,2.0931,2.0968,2.0974,2.0979,0,0,0,0,0,2.0907,2.0928,2.0919,2.092,2.0922,2.093,2.093,2.0915,2.09,2.091,2.0902,2.0884,2.0903,2.0888,2.0889,2.0907,2.0925,2.0928,2.0931,2.0965,2.0973,2.0979,0,0,0,0,0,0,2.0938,2.0927,2.0916,2.0936,2.0935,2.0924,2.0936,2.0923,2.0925,2.0922,2.0902,2.0901,2.092,2.0915,2.0899,2.0934,2.0911,2.0914,2.0937,2.0944,2.0949,2.095,2.0868,0,0,0,0,0,2.0948,2.0956,2.0945,2.0964,2.0964,2.0951,2.0954,2.0943,2.094,2.0939,2.0932,2.093,2.0935,2.0939,2.0943,2.0967,2.0966,2.098,2.0986,2.0991,2.0994,2.1009,2.1016,2.0942,2.0942,2.0942,0,0,2.0966,2.0961,2.0967,2.097,2.0967,2.0977,2.095,2.096,2.0967,2.094,2.0955,2.095,2.0947,2.0967,2.0976,2.0964,2.1014,2.0995,2.0998,2.0999,2.1013,2.102,2.1026,2.0944,2.0944,2.0944,0,0,2.1006,2.1003,2.1019,2.1018,2.1016,2.1007,2.1011,2.1004,2.1001,2.1016,2.0996,2.1005,2.1014,2.1013,2.1014,2.1058,2.1043,2.106,2.1089,2.1104,2.111,2.1115,2.1132,2.1138,2.1063,2.1063,2.1063,0,2.1029,2.1043,2.1028,2.1041,2.1044,2.1022,2.1039,2.1038,2.1037,2.104,2.1027,2.1041,2.1036,2.1058,2.1069,2.107,2.1075,2.106,2.111,2.1115,2.112,2.1136,2.1142,2.1066,2.1065,2.1065,2.1065,0,2.1073,2.1083,2.1097,2.1098,2.1102,2.1117,2.1105,2.1111,2.1101,2.1095,2.1112,2.1107,2.1111,2.1116,2.1104,2.1137,2.1129,2.1114,2.109,2.1129,2.1144,2.115,2.1069,2.1068,2.1067,2.1067,0,0,2.1129,2.1126,2.1131,2.1133,2.113,2.1138,2.1153,2.1158,2.1165,2.1166,2.1178,2.1189,2.1176,2.1177,2.1166,2.1179,2.1217,2.1162,2.1162,2.1173,2.1254,2.1267,2.1274,2.1207,2.1208,2.1209,2.1255,0,2.1168,2.1194,2.1183,2.1209,2.122,2.1201,2.1214,2.1215,2.121,2.1218,2.1213,2.1221,2.1202,2.1203,2.1215,2.121,2.1233,2.1206,2.1219,2.122,2.1221,2.1281,2.1294,2.1337,2.1261,2.1262,2.1262,0,2.1216,2.1222,2.125,2.1249,2.1253,2.1265,2.1271,2.1279,2.128,2.1276,2.1279,2.1267,2.1282,2.1259,2.1281,2.1264,2.1269,2.1267,2.1268,2.1269,2.1243,2.1284,2.135,2.1358,2.1271,2.127,2.127,0,2.1256,2.127,2.129,2.1292,2.1291,2.13,2.13,2.13,2.1305,2.1311,2.1314,2.1321,2.1325,2.1331,2.1321,2.1305,2.1345,2.1321,2.1343,2.1343,2.1351,2.1351,2.142,2.1354,2.1354,2.1354,2.1354,0,2.1301,2.1319,2.1309,2.132,2.1341,2.133,2.1351,2.1348,2.1349,2.1361,2.1345,2.1357,2.1343,2.1353,2.1346,2.1366,2.1368,2.1365,2.1363,2.1367,2.1368,2.137,2.1367,2.1356,2.1355,2.1355,2.1355,0,2.1348,2.1342,2.1362,2.1361,2.1361,2.1377,2.1376,2.1387,2.1383,2.1399,2.1401,2.1394,2.1406,2.1397,2.1408,2.1403,2.1431,2.1424,2.1431,2.143,2.1453,2.1451,2.1526,2.1536,2.1463,2.1464,2.1464,0,2.1377,2.1392,2.1393,2.1401,2.1402,2.1414,2.142,2.141,2.1417,2.1422,2.1433,2.1444,2.1452,2.1473,2.1469,2.1478,2.1472,2.1497,2.1473,2.1477,2.1474,2.1473,2.1475,2.1502,2.1503,2.1504,2.1504,0,2.143,2.1427,2.1437,2.1447,2.1456,2.1462,2.1468,2.1475,2.1465,2.1474,2.1487,2.1494,2.1507,2.1519,2.1527,2.1527,2.1515,2.1512,2.1518,2.1522,2.1526,2.1526,2.1446,2.151,2.151,2.1509,2.1509,2.1509,2.147,2.1483,2.1487,2.15,2.1503,2.151,2.1522,2.152,2.1531,2.1542,2.1535,2.1551,2.1555,2.1565,2.1568,2.158,2.157,2.1578,2.158,2.1582,2.1586,2.1525,2.1582,2.1581,2.1581,2.1581,2.1581,0,2.1523,2.1526,2.1538,2.1547,2.1558,2.1547,2.1553,2.1563,2.1577,2.1582,2.1592,2.1608,2.1621,2.1619,2.163,2.1641,2.1636,2.1644,2.1644,2.1644,2.1594,2.1589,2.1649,2.1649,2.1649,2.1649,2.1649,2.1649,2.1552,2.1574,2.1573,2.1597,2.16,2.1616,2.1621,2.1628,2.1632,2.1652,2.1662,2.1662,2.1665,2.1677,2.1688,2.1687,2.1693,2.1704,2.1701,2.1654,2.1647,2.1641,2.1636,2.1705,2.1705,2.175,2.1751,2.1751]}]]